Flag for Mexico Weather past 2 weeks in Fresnillo, Zacatecas, Mexico

Now
55 °F

Scattered clouds.


Feels Like: 51 °F
Forecast: 37 / 67 °F
Wind: 17 mph from Southwest

Location: Zacatecas Airport

Current Time: Dec 22, 2014 at 11:06:10 AM

Latest Report: Dec 22, 2014 at 9:46 AM


Visibility: 10 mi

Pressure: 30.21 "Hg

Humidity: 36%

Dew point: 28 °F

Location of FresnilloLocation

Historic Weather in Fresnillo — Graph

°F

Fresnillo temperature yesterday

Maximum temperature yesterday: 70 °F (at 3:46 PM)
Minimum temperature yesterday: 39 °F (at 3:50 AM)
Average temperature yesterday: 55 °F

Past Weeks' High & Low Weather Summary

 TemperatureHumidityPressure
High72 °F (Dec 16, 1:48 PM)94% (Dec 21, 7:47 PM)30.44 "Hg (Dec 21, 7:47 PM)
Low34 °F (Dec 22, 6:45 AM)12% (Dec 21, 12:47 PM)29.54 "Hg (Dec 11, 2:52 AM)
Average54 °F52%30.28 "Hg
* Reported Dec 7 10:47 AM — Dec 22 9:46 AM, Fresnillo, Weather by CustomWeather, © 2014

Note: Actual official high and low records may vary slightly from our data, if they occured in-between our weather recording intervals... More about our weather records

Advertising

Fresnillo weather history for previous 24 hours

 ConditionsComfort  
Time TempWeatherWind HumidityBarometerVisibility
9:46 AM
Dec 22
55 °FScattered clouds.17 mph36%30.21 "Hg10 mi
6:45 AM34 °FClear.12 mph51%30.17 "Hg10 mi
5:45 AM39 °FClear.12 mph45%30.16 "Hg10 mi
4:49 AM41 °FClear.12 mph42%30.17 "Hg10 mi
3:45 AM39 °FClear.12 mph45%30.18 "Hg10 mi
2:46 AM41 °FClear.12 mph42%30.17 "Hg10 mi
1:46 AM43 °FClear.12 mph36%30.19 "Hg10 mi
12:45 AM45 °FClear.12 mph34%30.20 "Hg10 mi
10:49 PM
Dec 21
45 °FClear.12 mph34%30.22 "Hg10 mi
9:46 PM48 °FClear.12 mph27%30.21 "Hg10 mi
7:47 PM52 °FClear.12 mph94%30.18 "Hg10 mi
6:41 PM54 °FPassing clouds.12 mph16%30.16 "Hg10 mi
3:46 PM70 °FScattered clouds.23 mph12%30.13 "Hg10 mi
12:47 PM68 °FScattered clouds.23 mph12%30.19 "Hg10 mi
11:48 AM64 °FScattered clouds.17 mph14%30.22 "Hg10 mi
11:05 AM64 °FScattered clouds.17 mph14%30.24 "Hg10 mi
Weather by CustomWeather, © 2014

See weather overviewHow to use our weather pages